Theta_e
294 294 294 294 294 294 294 296 298 302 299 300 299 300 304 304 306 308 310 311 314 316 317 317 315 315 328 323 315 320 325 329 331 332 330 329 329 329 330 329 330 331 330 337 340
294 294 294 294 294 294 294 295 295 297 302 300 299 299 299 304 305 308 312 309 309 311 313 314 315 313 328 326 316 321 325 327 327 328 331 329 329 329 329 328 328 330 330 339 338
295 295 294 294 294 294 295 295 295 295 297 299 299 299 298 303 306 311 313 311 311 309 309 312 314 313 326 325 322 320 323 325 326 323 327 330 329 329 328 327 328 329 334 340 337
300 300 298 294 294 295 295 295 295 295 296 297 298 298 298 301 306 312 311 312 313 313 310 314 313 316 325 328 324 320 320 321 320 318 321 326 330 328 328 327 328 328 331 338 335
301 301 300 295 294 294 294 294 294 295 295 295 297 297 298 303 305 309 308 311 312 315 317 314 313 314 321 326 327 321 319 319 321 321 318 321 326 327 328 328 328 329 331 336 332
301 301 301 300 294 294 294 294 294 294 294 295 296 297 303 303 300 306 308 308 310 312 314 315 312 313 314 321 326 327 324 326 325 321 320 321 323 325 328 328 328 332 333 336 332
299 299 301 301 299 294 294 294 293 293 294 294 295 301 302 302 300 302 307 308 308 310 312 314 313 312 311 316 323 322 321 320 324 322 321 319 321 322 328 328 328 329 334 336 336
298 297 299 300 300 299 295 293 292 293 294 295 295 300 302 298 300 301 299 303 307 310 312 312 313 311 308 313 321 323 321 326 325 324 322 321 321 321 323 328 328 329 331 334 336
299 297 298 300 300 299 296 293 293 294 295 295 297 302 301 301 302 302 302 304 306 308 312 312 314 310 309 309 318 323 325 325 325 323 323 323 320 321 321 326 328 328 329 332 334
299 297 299 301 300 299 297 292 296 299 301 301 301 301 300 300 303 303 304 303 305 307 309 313 314 309 309 310 316 318 323 325 326 325 325 325 320 319 320 321 328 328 329 330 332
299 298 299 300 299 299 293 294 299 302 300 300 300 301 300 301 301 302 305 306 307 307 310 313 315 314 309 310 312 315 318 320 324 325 326 325 325 321 320 320 319 320 323 329 330
298 297 300 299 299 297 293 299 297 299 299 298 299 300 300 299 299 300 302 305 307 309 308 311 313 313 311 310 312 312 313 317 318 319 326 326 324 321 320 320 319 319 319 320 328
296 298 300 300 299 295 296 298 297 297 298 299 300 300 301 300 300 300 300 303 305 308 309 310 312 312 313 311 312 312 312 314 316 313 312 312 316 320 320 320 320 319 319 319 319
299 299 300 300 297 294 298 297 297 297 297 300 299 301 301 301 301 301 301 302 304 306 308 309 310 312 312 313 311 312 311 312 315 316 319 314 323 318 318 319 321 321 316 318 318
299 300 299 297 295 297 295 298 297 298 298 299 300 300 300 301 302 302 301 303 304 306 308 312 310 311 314 313 311 311 312 311 315 315 315 314 317 316 316 318 318 319 315 315 316
300 299 298 297 294 294 295 297 297 298 300 297 299 300 300 300 301 302 302 303 303 304 305 305 305 308 312 312 309 310 310 310 312 313 315 314 315 317 316 317 315 318 316 312 312
300 299 298 296 298 292 296 298 299 300 298 297 297 300 300 300 300 302 303 304 304 305 304 307 307 308 307 312 310 308 309 311 314 315 314 312 316 316 315 310 308 308 309 309 309
300 300 299 297 294 293 297 298 299 297 297 298 299 299 300 300 300 302 302 303 305 305 308 309 308 309 309 312 311 308 309 311 310 313 311 311 314 311 313 313 309 308 308 308 308
299 299 298 298 294 295 297 299 299 298 298 297 298 299 298 300 300 301 302 302 303 303 305 308 312 309 311 310 310 308 310 309 309 306 310 309 310 309 308 307 307 308 310 310 310
299 298 297 295 295 297 296 299 296 297 297 298 298 299 297 298 299 301 303 300 301 301 301 303 308 308 310 311 311 309 309 310 308 304 306 309 309 308 306 307 308 309 309 310 309
298 298 297 295 296 297 299 296 294 297 298 298 298 297 298 300 299 301 300 300 300 301 301 304 307 309 308 313 311 309 309 309 307 307 309 308 306 307 307 307 308 308 309 308 308
297 297 296 295 298 295 298 295 295 297 298 297 297 298 298 298 298 300 301 301 300 301 303 303 305 308 309 307 308 309 309 309 308 306 306 307 306 305 308 308 308 308 308 308 308
296 296 297 295 300 299 295 296 296 297 297 298 298 298 298 298 297 299 301 299 300 302 302 303 305 305 310 309 309 312 311 309 308 306 307 306 306 305 307 305 308 308 307 308 308
297 299 296 294 294 295 294 296 296 297 296 297 298 298 298 297 298 300 299 300 301 301 301 302 304 304 304 305 305 310 311 310 308 306 310 308 306 305 305 306 306 307 307 307 307
298 295 294 298 296 293 293 296 297 297 296 297 298 297 297 294 298 297 297 299 300 299 301 302 303 303 303 303 304 305 307 309 311 309 307 309 306 305 306 304 306 306 306 305 304
296 295 293 292 292 293 294 296 296 296 297 296 297 297 296 294 298 297 297 296 299 298 300 301 302 302 301 302 303 305 305 306 308 308 308 309 309 306 305 304 304 304 304 302 302
295 295 297 295 295 294 296 295 295 295 296 296 296 296 296 297 297 297 297 297 297 297 298 300 301 299 300 299 301 302 301 304 306 307 308 309 307 306 303 303 303 303 301 300 300
Wind_Speed
10 10 10 10 11 13 15 15 16 16 14 15 14 17 17 18 20 17 17 18 14 15 15 16 11 9 9 2 5 2 3 5 12 11 8 7 5 4 5 9 6 9 4 7 27
11 11 12 12 12 11 12 14 15 16 16 15 16 17 18 15 18 16 13 18 21 21 19 14 8 7 2 5 5 5 3 9 10 10 7 8 8 11 3 5 7 11 8 20 19
11 12 13 12 12 14 13 15 17 15 16 17 16 15 18 12 12 3 6 9 11 17 17 13 10 4 3 7 9 5 4 9 15 17 17 16 15 8 9 6 11 18 17 21 18
12 12 13 13 13 13 14 15 16 17 15 16 16 16 14 7 4 5 6 2 6 3 10 9 7 3 3 5 11 5 12 16 11 20 10 12 18 12 12 14 11 19 23 22 19
14 14 13 13 13 13 14 15 15 16 17 16 16 15 13 5 17 10 18 12 9 6 5 10 10 8 6 4 7 3 9 13 12 20 22 13 15 12 16 13 7 7 25 22 18
11 16 13 13 14 15 15 15 15 16 16 16 16 16 11 14 13 15 12 15 9 5 4 8 6 12 10 7 9 10 18 16 13 14 23 11 14 18 10 15 7 11 18 20 18
12 13 12 13 13 15 17 17 16 16 17 17 15 11 14 23 13 13 11 14 15 8 10 4 11 13 6 4 13 7 4 7 16 12 11 18 9 9 16 13 13 12 14 16 17
13 14 14 14 15 16 18 19 18 17 15 16 15 9 12 18 14 17 17 18 13 10 11 11 6 12 12 5 5 7 2 9 10 17 11 8 10 8 20 17 10 16 17 19 19
16 16 15 15 15 17 19 19 19 18 14 13 10 6 13 7 11 13 15 19 13 12 11 12 8 8 10 9 6 9 9 12 11 22 12 9 5 10 24 21 18 16 21 20 20
17 15 15 12 14 18 19 21 12 10 7 4 5 6 11 8 10 13 10 16 17 13 13 16 9 7 8 11 18 7 10 8 16 11 17 17 10 12 24 19 14 16 19 22 22
16 14 13 11 13 17 19 21 10 2 4 8 13 12 16 13 12 14 11 12 17 14 12 18 9 16 17 17 11 8 11 15 10 13 13 19 15 13 20 16 7 11 18 16 21
17 14 13 11 13 12 12 7 4 8 13 17 17 20 23 21 24 21 13 12 19 14 13 9 21 15 12 14 15 18 15 9 5 5 13 10 15 12 14 25 14 16 18 18 12
13 12 13 10 9 7 8 6 10 7 6 10 6 9 11 11 23 27 19 19 16 16 17 20 10 19 18 16 17 18 19 9 7 5 4 3 8 11 12 26 31 25 17 14 12
10 10 9 7 4 6 3 8 7 3 3 4 0 1 6 5 9 23 26 21 8 14 10 16 24 19 21 19 17 19 12 7 9 8 3 3 6 10 16 17 20 32 20 19 20
9 7 6 2 3 4 7 8 3 1 3 3 5 5 11 9 13 9 19 18 11 12 5 3 13 18 18 21 15 9 7 12 7 5 5 6 2 5 7 12 17 26 22 20 23
8 5 2 3 3 6 10 2 1 1 3 3 4 7 10 11 8 8 5 18 10 12 12 10 16 7 20 16 11 4 5 8 6 4 4 10 7 4 7 13 7 18 19 10 5
6 4 3 2 3 9 8 1 2 3 2 5 3 5 12 8 12 8 11 5 8 4 7 6 8 9 6 21 13 12 10 3 4 5 7 18 8 10 5 6 9 10 17 14 7
4 4 3 4 4 7 5 1 4 2 1 6 8 15 4 8 8 10 5 10 6 4 3 4 7 11 7 11 13 19 17 5 6 7 4 13 9 6 21 19 10 13 14 12 8
5 3 2 5 5 4 3 3 2 3 5 9 14 3 4 4 4 6 4 4 4 3 5 3 6 4 11 11 20 17 19 10 4 1 4 6 6 2 7 7 15 19 19 18 15
4 2 4 4 4 3 1 1 3 4 7 6 4 5 4 7 7 8 2 3 2 2 4 5 6 2 7 12 20 19 19 14 1 4 3 6 5 4 8 11 12 14 19 21 23
4 1 5 5 5 2 2 3 3 5 6 4 6 6 6 6 7 5 8 2 3 4 2 3 4 2 5 5 14 12 15 10 5 4 4 4 3 4 10 14 15 14 18 20 21
3 2 4 3 2 1 2 2 4 6 2 3 4 7 7 9 4 4 5 5 6 5 1 1 4 4 6 3 10 18 15 25 9 6 2 3 2 10 16 17 21 17 16 18 18
2 1 4 3 2 1 0 2 4 2 5 2 3 6 7 6 4 3 5 8 8 5 2 2 2 4 0 3 3 4 8 17 4 3 5 4 3 2 15 13 19 18 16 14 14
2 1 3 4 3 1 3 2 4 3 3 4 4 5 5 5 7 2 6 8 8 9 3 2 0 2 1 3 3 5 9 6 11 3 3 3 10 7 8 8 13 14 13 11 13
2 1 1 1 2 1 2 1 4 3 3 4 4 4 3 3 6 6 8 7 6 16 6 3 1 1 1 1 1 2 7 4 3 4 5 3 12 9 8 8 8 13 13 16 12
3 4 4 3 2 2 3 2 3 4 2 3 2 8 5 4 1 4 6 6 3 8 8 7 1 2 1 1 3 2 5 7 5 4 5 4 7 10 14 8 13 15 16 15 12
3 5 2 5 3 1 2 3 3 5 6 7 7 8 7 5 9 9 4 10 11 5 5 6 4 3 2 5 4 3 2 2 2 2 2 2 10 10 5 8 13 17 15 13 9
Wind_Direction
13 8 1 353 353 352 352 352 346 348 339 328 329 323 311 303 292 303 298 265 263 266 270 286 300 308 238 250 277 270 274 239 248 259 275 101 148 166 256 128 142 165 32 132 168
360 360 354 347 344 344 348 351 346 337 338 330 325 329 317 321 310 305 286 278 262 259 267 278 292 308 252 227 235 215 232 248 265 269 310 329 184 158 142 203 178 153 129 160 174
352 349 347 347 338 338 338 339 339 337 331 326 327 323 330 319 327 228 267 270 272 258 256 253 267 282 236 230 209 219 235 267 273 20 5 339 325 258 178 219 193 185 157 177 182
341 340 338 339 343 339 335 334 335 336 331 324 322 327 322 320 273 84 350 1 36 271 221 217 225 186 235 213 225 267 246 271 315 342 355 325 320 293 193 244 223 196 185 187 189
332 332 332 332 333 335 336 333 332 331 329 325 320 320 337 291 248 269 308 287 30 6 218 207 208 209 207 218 221 222 248 253 303 334 316 301 296 285 285 238 258 198 178 190 193
318 315 319 330 326 328 331 332 329 325 324 321 320 317 328 278 284 257 271 295 295 4 296 227 237 232 270 216 206 187 237 261 299 307 306 281 275 273 266 245 211 167 175 193 198
328 330 313 316 323 324 325 326 325 321 316 316 312 316 291 260 263 267 259 270 278 294 292 248 245 254 238 262 223 205 189 297 255 258 282 304 271 251 242 255 229 191 194 198 196
333 330 320 314 322 323 321 322 321 317 312 306 307 304 268 296 282 275 265 264 275 268 273 259 252 252 247 248 155 194 200 227 217 232 254 285 270 268 233 249 236 193 210 205 198
333 332 327 319 318 322 323 320 321 311 308 297 303 276 281 277 269 293 267 246 254 256 256 245 234 225 213 231 183 205 215 223 227 218 218 234 280 257 271 233 210 224 215 209 203
330 328 328 314 318 324 324 325 337 337 357 326 264 287 261 262 299 280 271 250 238 245 268 223 230 204 221 199 208 166 221 220 214 197 206 231 248 281 287 301 201 237 239 214 203
322 321 321 318 318 324 331 354 10 307 316 281 290 248 274 296 306 298 285 240 231 221 226 207 211 211 209 222 248 243 211 212 199 216 189 220 240 252 289 293 264 250 262 237 211
313 313 314 310 317 328 355 12 349 300 297 287 270 270 271 268 278 271 260 240 229 214 215 249 223 220 227 228 223 242 254 225 175 44 179 209 242 257 270 281 260 245 250 268 239
307 310 313 306 323 350 2 359 330 313 283 297 266 283 295 253 252 261 261 245 250 231 218 223 242 209 227 225 226 228 234 237 176 122 23 358 254 223 239 255 270 282 256 257 275
306 313 312 316 7 337 359 323 360 326 306 293 344 294 315 271 262 259 239 241 224 249 254 239 237 250 214 227 221 232 223 245 144 139 179 113 262 220 229 225 238 261 249 242 251
314 316 314 273 263 7 297 318 345 98 293 338 315 303 327 257 297 340 229 230 219 237 238 214 211 231 228 222 220 247 196 220 149 137 124 170 219 235 263 224 222 228 236 228 236
292 300 280 310 7 307 333 43 77 244 247 326 306 323 323 324 261 269 279 222 237 237 235 259 293 297 237 222 205 221 271 180 165 100 253 192 185 203 197 217 217 218 190 168 204
252 252 227 250 215 314 353 6 258 244 335 311 281 296 309 301 314 253 216 216 212 199 232 239 248 242 291 204 189 200 194 136 166 186 229 173 187 235 250 73 90 77 80 91 87
207 206 214 286 308 330 10 272 253 203 333 305 317 309 299 346 334 333 242 229 206 322 281 249 222 190 217 216 197 202 198 167 172 193 162 154 217 245 227 254 108 97 95 92 95
165 173 283 312 332 339 346 258 3 354 349 329 317 12 317 16 318 327 247 295 47 99 308 196 236 159 192 205 210 195 213 212 134 81 121 187 238 208 146 118 103 103 98 95 93
137 124 309 356 354 19 105 334 298 333 338 331 297 350 323 336 341 341 291 7 15 130 119 299 284 340 217 213 233 192 199 214 255 134 197 192 193 205 164 136 121 113 111 105 98
121 59 336 350 16 317 336 353 305 304 320 320 339 317 325 339 321 321 6 31 342 311 104 283 259 137 2 218 192 196 201 206 186 198 163 133 227 305 148 137 123 112 114 109 100
144 65 337 12 299 17 337 353 320 301 201 291 295 278 316 331 315 337 331 343 340 308 52 340 304 291 217 210 284 223 208 196 190 228 231 128 353 340 112 114 112 115 114 102 87
97 104 340 24 315 57 58 266 261 300 333 354 296 355 312 303 316 329 335 334 10 6 2 335 52 328 290 80 255 206 262 193 192 151 189 129 177 58 106 89 94 96 118 98 86
111 86 17 60 86 333 2 3 299 273 265 280 252 275 333 316 343 323 348 356 15 5 326 313 78 191 81 318 329 325 225 297 201 113 142 155 135 141 123 119 103 94 105 93 88
103 120 121 64 102 6 298 290 294 309 231 288 301 324 105 312 320 6 359 347 324 2 343 27 132 78 33 83 233 272 -0 60 264 183 136 152 150 150 104 98 103 101 101 96 86
141 142 130 147 147 253 170 224 296 307 282 297 282 319 324 180 286 310 343 9 355 336 355 338 59 15 91 1 270 329 74 17 58 28 71 79 95 94 113 115 94 90 100 93 88
174 157 159 168 180 221 186 273 290 344 268 269 311 318 316 21 325 300 269 290 288 309 327 349 341 347 72 345 307 30 316 143 118 212 132 170 131 151 127 107 98 112 112 108 102